Probability
0 0 0 0 0 0 0 0 0 0 0 0 0 0 0 0 0 0 0 0 0 0 0 0 0 0 0 0 0 0 0 0 0 0 0 0 0 0 0 0 0 0 0
0 0 0 0 0 0 0 0 0 0 0 0 0 0 0 0 0 0 0 0 0 0 0 0 0 0 0 0 0 0 0 0 0 0 0 0 0 0 0 0 0 0 0
0 0 0 0 0 0 0 0 0 0 0 0 0 0 0 0 0 0 0 0 0 0 0 0 0 0 0 0 0 0 0 0 0 0 0 0 0 0 0 0 0 0 0
0 0 0 0 0 0 0 1 1 1 0 0 0 0 0 0 0 0 0 0 0 0 0 0 0 1 1 1 0 0 0 0 0 0 0 0 0 0 0 0 0 0 0
0 0 0 0 0 0 0 2 2 1 0 0 0 0 0 0 0 0 0 0 0 0 0 0 1 2 2 2 1 0 0 0 0 0 0 0 0 0 0 0 0 0 0
0 0 0 0 0 0 0 1 2 2 1 1 0 0 0 0 0 0 0 0 0 0 0 1 2 2 3 3 1 1 0 0 0 0 0 0 0 0 0 0 0 0 0
0 0 0 0 0 0 0 0 1 1 2 2 1 1 1 0 0 0 0 0 0 0 0 1 2 3 3 3 3 2 1 0 0 0 0 0 0 0 0 0 0 0 0
0 0 0 0 0 0 0 0 0 0 1 2 2 2 1 0 0 0 0 0 0 0 1 2 3 3 3 4 3 3 1 1 1 1 0 0 0 0 0 0 0 0 0
0 0 0 0 0 1 1 1 0 0 0 1 2 2 1 0 0 0 0 0 0 0 1 2 3 3 4 4 4 3 3 2 2 2 1 0 0 0 0 0 0 0 0
0 0 0 0 0 1 1 1 0 0 0 0 1 1 0 0 0 0 0 0 0 0 1 1 2 3 3 3 3 3 3 3 3 2 1 0 0 0 0 0 0 0 0
0 0 0 0 0 0 0 0 0 0 0 0 0 0 0 0 0 0 0 0 0 0 0 0 1 2 1 1 1 2 2 2 2 1 1 0 0 0 0 0 0 0 0
0 0 0 0 0 0 0 0 0 0 0 0 0 0 0 0 0 0 0 0 0 0 0 0 0 0 0 0 0 1 1 1 1 0 0 0 0 0 0 0 0 0 0
0 0 0 0 0 0 0 0 0 0 0 0 0 0 0 0 0 0 0 0 0 0 0 0 0 0 0 0 0 0 0 0 0 0 0 0 0 0 0 0 0 0 0
0 0 0 0 0 0 0 0 0 0 0 0 0 0 0 0 0 0 0 0 1 1 0 0 0 0 0 0 0 0 0 0 0 0 0 0 0 0 1 1 1 0 0
0 0 0 0 0 0 0 0 0 0 0 0 0 0 0 0 0 0 0 0 1 2 1 0 0 0 0 0 0 0 0 0 0 0 0 0 0 1 2 2 2 1 0
0 0 0 0 0 0 0 0 0 0 0 0 0 0 0 0 0 0 0 0 1 2 2 0 0 0 0 0 0 0 0 0 0 0 0 0 0 1 2 2 2 2 1
0 0 0 0 0 0 0 0 0 0 0 0 0 0 0 0 0 0 0 0 1 1 1 0 0 0 0 0 0 0 0 0 0 0 0 0 0 0 1 2 3 3 2
0 0 0 0 0 0 0 0 0 0 0 0 0 0 0 0 0 0 0 0 0 0 0 0 0 0 0 0 0 0 0 0 0 0 0 0 0 1 1 2 2 2 3
0 0 0 0 0 0 0 0 0 0 0 0 0 0 0 0 0 0 0 0 0 0 0 0 0 0 0 0 0 0 0 0 0 0 0 0 0 1 2 2 1 1 2
0 0 0 0 0 0 0 0 0 0 0 0 0 0 0 0 0 0 0 0 0 0 0 0 0 0 0 0 0 0 0 0 0 0 0 0 0 1 2 3 2 1 1
0 0 0 0 0 0 0 0 0 0 0 0 0 0 0 0 0 0 0 0 0 0 0 0 0 0 0 0 0 0 0 0 0 0 0 0 0 1 2 3 3 3 2
0 0 0 1 1 1 0 0 0 0 0 0 0 0 0 0 0 0 0 0 0 0 0 0 0 0 0 0 0 1 1 0 0 0 0 0 1 1 1 1 2 3 3
0 0 0 1 2 2 1 0 0 0 0 0 0 0 0 0 0 0 0 0 1 1 0 0 0 0 0 0 1 2 2 1 1 1 0 0 1 1 0 0 1 3 3
0 0 0 1 2 2 1 0 0 0 0 0 0 0 0 0 0 0 1 1 2 2 1 0 0 0 0 0 1 2 3 3 2 2 1 1 1 1 0 0 1 3 3
0 0 0 0 1 1 0 0 0 0 0 0 0 0 0 0 0 0 1 2 3 3 2 1 0 0 0 0 0 1 2 3 3 3 3 2 2 1 0 0 2 3 3
0 0 0 0 1 1 1 0 0 0 0 0 0 0 0 0 0 0 1 2 3 3 3 2 1 0 0 0 0 0 1 3 3 3 3 3 3 2 1 0 1 3 3
Wind_Speed
3 3 4 2 2 3 4 5 5 4 4 4 5 5 6 6 6 5 5 5 6 6 7 7 7 8 8 8 8 8 8 8 8 8 8 8 8 7 7 6 4 6 8
3 4 4 2 3 4 4 5 5 5 5 5 5 6 6 6 6 6 6 5 6 7 7 7 8 8 9 9 9 8 8 8 8 7 7 7 8 7 6 5 4 6 6
4 4 4 4 3 4 5 5 5 6 5 5 5 6 6 6 6 7 6 6 7 7 8 8 8 9 9 9 9 9 9 8 8 6 3 5 7 7 6 6 6 6 5
4 4 5 5 4 4 5 5 6 6 6 5 6 6 6 6 7 7 7 7 8 8 8 8 8 9 9 9 9 9 9 8 6 2 2 4 5 8 6 6 6 5 5
4 4 6 4 4 5 5 6 7 7 6 6 5 6 7 7 7 7 8 8 8 7 7 7 8 9 9 8 9 9 9 7 5 2 5 5 5 8 6 6 5 5 5
5 5 7 4 5 5 6 6 7 7 6 6 6 6 7 7 7 7 8 8 7 7 7 8 8 9 9 9 9 9 8 6 3 5 5 5 5 8 6 6 6 5 5
6 5 7 6 6 6 6 7 7 7 7 7 7 7 7 7 7 7 7 7 7 7 7 7 9 9 9 9 9 8 7 5 4 5 4 5 7 7 6 6 6 5 5
5 5 6 7 6 7 7 7 7 7 8 8 8 8 8 8 8 8 8 8 8 8 8 8 9 9 9 9 9 8 6 3 5 5 5 5 8 7 6 6 6 6 6
5 4 4 5 6 7 7 8 8 8 8 7 8 9 9 9 9 9 8 8 8 8 8 8 9 9 9 9 9 8 7 4 4 4 5 6 8 7 7 7 7 7 7
4 4 4 4 4 5 7 8 7 7 7 7 7 7 7 7 8 8 8 9 9 8 8 8 8 9 9 9 9 8 5 2 5 5 5 7 9 8 8 8 8 8 8
4 3 3 3 3 3 5 6 5 5 5 4 5 6 3 4 6 6 10 9 9 9 9 9 9 9 9 10 9 6 3 4 5 5 5 9 9 8 8 8 8 8 8
4 4 3 3 3 3 3 3 2 3 3 3 4 4 4 5 5 5 9 8 8 9 9 9 8 7 4 5 6 3 3 5 5 5 6 10 9 9 9 9 9 8 8
4 3 3 2 2 3 2 2 2 2 2 3 4 4 4 4 3 3 3 4 5 5 5 6 5 4 5 4 4 5 5 4 4 4 7 10 10 10 10 9 9 9 8
3 3 3 2 3 3 3 2 2 2 2 2 3 4 3 3 3 3 3 3 3 3 4 4 3 5 6 6 6 6 6 4 4 4 7 11 10 10 10 10 9 9 8
4 3 3 2 2 3 3 2 2 2 2 3 3 2 3 3 3 3 3 3 4 3 4 4 4 5 5 6 6 6 6 6 5 5 5 11 11 10 10 10 9 9 8
4 3 3 3 3 3 3 2 2 3 2 2 3 3 4 3 3 3 3 3 3 3 3 3 5 4 4 5 5 6 5 5 5 5 5 7 10 10 10 10 9 9 8
4 4 4 3 3 3 3 3 2 2 3 2 2 3 3 3 3 3 2 3 3 3 4 3 5 4 4 4 5 5 5 5 5 5 4 4 5 9 10 10 9 9 8
4 4 5 4 4 3 3 3 2 3 3 2 2 2 3 3 3 3 2 3 3 3 3 3 3 4 4 4 4 4 3 3 4 4 4 4 4 4 7 10 9 9 8
5 5 6 5 5 4 3 3 3 3 3 2 2 2 2 3 3 3 2 2 3 3 3 3 3 3 4 4 4 3 3 3 3 3 4 4 4 3 4 7 8 9 9
5 5 6 6 5 5 3 3 3 3 2 2 2 2 2 2 3 3 2 3 3 3 3 3 4 3 3 3 3 3 3 2 2 3 3 3 3 4 4 4 4 6 8
6 6 6 6 6 5 3 3 3 3 2 2 2 3 3 2 2 2 2 2 2 2 2 3 3 4 3 2 2 2 2 2 3 2 2 2 3 3 3 4 3 3 4
7 7 7 6 6 6 4 3 2 2 2 2 2 2 2 2 2 1 2 2 2 2 3 3 3 2 2 1 1 1 2 3 2 2 1 1 2 2 3 3 3 3 3
8 8 6 7 7 6 6 4 3 3 3 3 3 2 2 2 2 1 1 1 2 2 2 3 3 3 2 1 1 2 1 1 2 2 2 1 1 1 1 1 2 2 2
8 7 8 7 7 7 7 5 5 4 3 3 2 3 3 3 2 2 2 2 2 1 2 3 3 2 2 2 1 1 2 1 1 2 2 2 1 1 1 1 1 1 2
7 7 7 7 7 7 7 6 6 4 3 3 3 3 3 3 2 2 2 2 2 2 2 2 2 3 2 2 1 1 1 1 2 2 1 2 2 1 0 0 0 1 1
6 6 6 7 7 7 7 7 7 6 5 4 4 3 3 2 2 3 2 2 2 2 2 2 2 3 2 2 2 1 1 1 2 1 2 2 1 1 1 0 0 0 0
Wind_Direction
62 66 72 28 46 49 48 48 48 53 63 71 78 89 90 92 90 85 89 96 96 95 91 89 92 94 97 93 94 94 96 99 102 104 105 101 100 102 106 111 124 111 104
63 78 87 50 61 59 52 52 55 59 70 74 76 85 89 89 88 84 81 90 96 97 91 90 93 92 91 91 92 93 94 95 96 98 110 114 105 101 102 96 78 89 105
76 85 103 77 66 63 55 57 59 61 63 73 78 83 85 90 90 88 84 90 97 96 93 92 91 91 91 90 91 91 90 90 90 97 134 123 111 104 102 98 99 101 107
82 83 74 75 70 67 60 60 63 60 56 66 79 85 88 89 92 89 84 85 93 93 93 91 90 88 91 89 89 90 89 88 88 105 118 92 99 98 98 97 101 104 108
90 84 82 74 71 66 64 64 64 56 53 63 78 87 87 86 87 84 81 84 88 89 92 94 94 90 88 90 90 90 88 88 93 91 73 72 78 87 90 89 91 99 102
98 91 89 77 72 67 66 64 63 59 55 64 77 84 86 85 84 85 84 87 87 88 90 93 93 90 88 87 89 89 89 91 114 82 76 77 79 83 88 91 87 89 93
99 94 92 84 77 72 67 65 64 59 56 64 73 80 84 83 84 85 86 90 91 91 92 90 90 90 88 85 86 84 84 80 77 81 77 73 73 78 85 93 92 90 91
96 97 100 104 85 73 67 64 63 61 59 63 69 71 75 79 78 79 81 86 90 92 95 94 91 88 87 84 84 80 72 48 85 81 77 73 75 78 84 90 92 93 93
97 98 96 104 109 102 79 64 58 57 56 58 65 69 72 74 74 76 77 85 90 93 94 94 92 90 87 85 83 79 72 46 66 70 76 72 74 74 79 83 85 84 86
106 102 98 98 94 103 103 86 70 63 61 62 65 70 75 85 85 82 86 84 87 89 92 94 93 91 88 84 80 76 71 73 66 69 65 73 73 71 76 78 80 78 82
112 104 100 98 94 86 83 97 102 97 83 92 95 89 87 81 81 87 78 82 84 85 88 88 92 95 98 94 84 78 72 63 66 58 59 66 68 70 74 77 79 81 82
125 115 107 103 104 100 89 96 87 85 87 77 73 81 70 69 67 73 89 88 87 91 95 90 97 110 107 96 97 96 70 69 64 65 64 63 66 69 72 75 77 83 85
119 109 105 103 94 96 102 87 81 77 81 76 73 85 80 79 85 78 86 100 96 102 96 105 110 83 78 72 66 68 62 60 61 63 64 63 65 70 71 72 75 79 82
124 113 106 105 110 106 100 92 94 90 83 80 72 76 82 81 79 78 76 77 80 81 82 82 83 85 79 76 72 71 70 63 64 64 61 59 63 67 70 71 73 74 76
143 137 121 121 110 105 97 97 107 93 81 90 80 74 82 86 86 89 89 85 81 84 92 90 87 84 78 71 65 62 63 65 64 70 73 63 59 61 63 64 67 68 69
158 147 135 134 118 120 121 124 100 98 101 84 86 81 79 85 92 92 91 86 82 81 84 93 92 90 85 76 68 62 57 59 62 67 75 81 69 61 60 60 63 62 64
160 153 142 135 130 123 111 100 96 97 97 95 88 80 85 88 97 98 98 100 97 99 100 93 92 89 92 92 81 70 63 57 62 62 60 62 79 75 64 59 58 58 62
163 155 143 146 146 124 115 119 113 103 102 104 99 83 94 97 95 101 103 103 108 111 109 106 103 101 97 90 80 70 70 68 66 62 67 67 57 63 75 63 56 55 56
173 163 154 155 149 136 128 125 112 107 104 106 107 94 94 99 101 99 97 109 117 118 118 117 110 105 99 95 87 74 61 64 62 62 70 66 64 56 68 81 70 56 52
184 173 159 159 160 147 149 141 127 117 116 110 97 100 87 92 95 103 119 119 122 126 126 127 122 112 103 105 96 79 64 74 71 57 60 67 62 58 55 63 81 79 62
187 182 168 172 167 159 160 166 159 148 147 128 110 104 108 100 103 109 128 126 136 134 142 145 137 131 126 127 131 117 106 87 73 74 56 60 72 62 65 65 58 62 86
189 191 183 181 175 171 170 167 162 147 150 125 126 129 129 121 108 117 144 139 144 146 160 157 153 152 139 187 222 195 164 149 127 98 82 65 73 80 65 64 66 63 53
191 192 191 188 182 180 173 165 156 149 162 156 150 148 150 138 134 141 136 141 153 171 171 177 175 185 176 182 283 282 262 122 133 135 105 103 79 63 70 55 62 65 68
193 192 195 189 187 182 177 181 181 186 180 167 160 155 167 167 157 166 174 176 171 167 174 189 188 198 205 188 175 294 326 360 260 155 150 125 108 71 41 50 36 57 67
187 190 196 190 190 187 189 188 202 203 187 171 173 169 178 165 176 183 196 200 194 188 189 188 193 213 221 221 210 189 173 218 261 265 194 177 165 147 92 348 41 16 50
180 183 189 193 191 190 197 198 207 202 196 189 193 183 186 177 188 189 204 214 209 201 198 200 201 212 231 224 231 225 229 243 247 257 245 217 196 151 171 168 257 75 60